| time (UTC) | temp F | wind direction | speed MPH | gust MPH | rain 1hr in | rain 24hr in | rain mn in | humidity % | barometer mb |
| 20260906093002 | 76 | 346 | 0.0 | 2.0 | 0.00 | 0.03 | 0.00 | 80 | 1011.1 |
| 20260906091609 | 76 | 346 | 1.0 | 3.0 | 0.00 | 0.03 | 0.00 | 80 | 1010.9 |
| 20260906090104 | 77 | 345 | 0.0 | 4.0 | 0.00 | 0.03 | 0.00 | 80 | 1010.8 |
| 20260906084557 | 77 | 22 | 0.0 | 2.0 | 0.00 | 0.03 | 0.00 | 79 | 1010.9 |
| 20260906083056 | 77 | 33 | 0.0 | 4.0 | 0.00 | 0.03 | 0.00 | 79 | 1010.8 |
| 20260906081559 | 78 | 32 | 1.0 | 4.0 | 0.00 | 0.03 | 0.00 | 79 | 1010.9 |
| 20260906080058 | 78 | 29 | 2.0 | 5.0 | 0.00 | 0.03 | 0.00 | 79 | 1011.0 |
| 20260906074553 | 78 | 360 | 1.0 | 4.0 | 0.00 | 0.03 | 0.00 | 79 | 1010.8 |
| 20260906073050 | 78 | 21 | 1.0 | 3.0 | 0.00 | 0.10 | 0.00 | 79 | 1010.7 |
| 20260906071548 | 79 | 22 | 0.0 | 3.0 | 0.00 | 0.10 | 0.00 | 78 | 1010.7 |
| 20260906070047 | 79 | 22 | 2.0 | 4.0 | 0.00 | 0.10 | 0.00 | 78 | 1010.9 |
| 20260906064545 | 79 | 17 | 0.0 | 0.0 | 0.00 | 0.10 | 0.00 | 78 | 1011.0 |
| 20260906063044 | 79 | 17 | 0.0 | 2.0 | 0.00 | 0.10 | 0.00 | 78 | 1011.0 |
| 20260906061544 | 80 | 17 | 0.0 | 4.0 | 0.00 | 0.10 | 0.00 | 77 | 1011.0 |
| 20260906054539 | 80 | 17 | 0.0 | 3.0 | 0.00 | 0.10 | 0.00 | 77 | 1011.0 |
| 20260906053039 | 81 | 17 | 0.0 | 3.0 | 0.00 | 0.10 | 0.00 | 77 | 1010.9 |
| 20260906051536 | 81 | 19 | 1.0 | 3.0 | 0.00 | 0.10 | 0.00 | 76 | 1010.8 |
| 20260906050036 | 81 | 19 | 0.0 | 2.0 | 0.00 | 0.10 | 0.00 | 75 | 1010.7 |
| 20260906044533 | 82 | 19 | 1.0 | 3.0 | 0.00 | 0.10 | 0.00 | 75 | 1010.8 |
| 20260906043037 | 82 | 29 | 1.0 | 4.0 | 0.00 | 0.10 | 0.00 | 74 | 1010.6 |
| 20260906041531 | 82 | 40 | 1.0 | 2.0 | 0.00 | 0.10 | 0.00 | 74 | 1010.4 |
| 20260906040034 | 82 | 325 | 0.0 | 0.0 | 0.00 | 0.10 | 0.00 | 73 | 1010.3 |
| 20260906034529 | 83 | 324 | 0.0 | 0.0 | 0.00 | 0.10 | 0.00 | 72 | 1010.0 |
| 20260906033021 | 83 | 324 | 0.0 | 1.0 | 0.00 | 0.10 | 0.10 | 71 | 1010.0 |
| 20260906031534 | 84 | 324 | 0.0 | 1.0 | 0.00 | 0.10 | 0.10 | 69 | 1010.1 |
| 20260906030020 | 84 | 324 | 0.0 | 1.0 | 0.00 | 0.10 | 0.10 | 68 | 1010.2 |
| 20260906024518 | 85 | 324 | 1.0 | 2.0 | 0.00 | 0.10 | 0.10 | 68 | 1010.2 |
| 20260906023018 | 85 | 324 | 0.0 | 2.0 | 0.00 | 0.10 | 0.10 | 66 | 1010.2 |
| 20260906021521 | 86 | 324 | 0.0 | 1.0 | 0.00 | 0.10 | 0.10 | 65 | 1009.9 |
| 20260906020018 | 86 | 324 | 1.0 | 2.0 | 0.00 | 0.10 | 0.10 | 64 | 1009.7 |
| 20260906014523 | 87 | 324 | 1.0 | 2.0 | 0.00 | 0.10 | 0.10 | 64 | 1009.7 |
| 20260906013017 | 87 | 324 | 1.0 | 3.0 | 0.00 | 0.10 | 0.10 | 62 | 1009.4 |
| 20260906011517 | 88 | 319 | 0.0 | 0.0 | 0.00 | 0.10 | 0.10 | 59 | 1009.1 |
| 20260906010016 | 89 | 319 | 0.0 | 0.0 | 0.00 | 0.10 | 0.10 | 59 | 1008.9 |
| 20260906004515 | 90 | 319 | 0.0 | 1.0 | 0.00 | 0.10 | 0.10 | 57 | 1008.9 |
| 20260906003015 | 91 | 319 | 0.0 | 0.0 | 0.00 | 0.10 | 0.10 | 55 | 1009.0 |
| 20260906001515 | 92 | 319 | 0.0 | 1.0 | 0.00 | 0.10 | 0.10 | 54 | 1009.3 |
| 20260906000014 | 93 | 319 | 0.0 | 1.0 | 0.00 | 0.10 | 0.10 | 52 | 1009.5 |
| 20260905234512 | 94 | 319 | 0.0 | 0.0 | 0.00 | 0.10 | 0.10 | 49 | 1009.6 |
| 20260905233015 | 94 | 319 | 0.0 | 1.0 | 0.00 | 0.10 | 0.10 | 48 | 1009.6 |
| 20260905231512 | 95 | 318 | 0.0 | 1.0 | 0.00 | 0.10 | 0.10 | 46 | 1009.5 |
| 20260905230011 | 96 | 319 | 0.0 | 2.0 | 0.00 | 0.10 | 0.10 | 45 | 1009.3 |
| 20260905224512 | 97 | 319 | 0.0 | 4.0 | 0.00 | 0.10 | 0.10 | 43 | 1009.2 |
| 20260905223010 | 98 | 348 | 1.0 | 9.0 | 0.00 | 0.10 | 0.10 | 41 | 1009.0 |
| 20260905221510 | 98 | 340 | 3.0 | 11.0 | 0.00 | 0.10 | 0.10 | 39 | 1009.1 |
| 20260905220012 | 99 | 309 | 3.0 | 7.0 | 0.00 | 0.10 | 0.10 | 38 | 1008.9 |
| 20260905214507 | 99 | 23 | 3.0 | 12.0 | 0.00 | 0.10 | 0.10 | 39 | 1009.1 |
| 20260905213009 | 100 | 43 | 2.0 | 13.0 | 0.00 | 0.10 | 0.10 | 38 | 1009.3 |
| 20260905211506 | 100 | 355 | 3.0 | 10.0 | 0.00 | 0.10 | 0.10 | 38 | 1009.1 |
| 20260905210004 | 99 | 250 | 4.0 | 8.0 | 0.00 | 0.10 | 0.10 | 39 | 1009.2 |
| 20260905204502 | 100 | 297 | 2.0 | 8.0 | 0.00 | 0.10 | 0.10 | 38 | 1009.4 |
| 20260905203101 | 100 | 320 | 2.0 | 8.0 | 0.00 | 0.10 | 0.10 | 41 | 1009.6 |
| 20260905201557 | 99 | 305 | 2.0 | 5.0 | 0.00 | 0.10 | 0.10 | 40 | 1009.7 |
| 20260905200118 | 99 | 319 | 3.0 | 10.0 | 0.00 | 0.10 | 0.10 | 40 | 1009.9 |
| 20260905194551 | 98 | 160 | 2.0 | 7.0 | 0.00 | 0.10 | 0.10 | 45 | 1010.1 |
| 20260905193049 | 97 | 223 | 1.0 | 5.0 | 0.00 | 0.10 | 0.10 | 43 | 1010.4 |
| 20260905191546 | 97 | 149 | 2.0 | 8.0 | 0.00 | 0.10 | 0.10 | 42 | 1010.7 |
| 20260905190047 | 96 | 163 | 1.0 | 7.0 | 0.00 | 0.10 | 0.10 | 44 | 1010.9 |
| 20260905184540 | 95 | 105 | 2.0 | 8.0 | 0.00 | 0.10 | 0.10 | 43 | 1011.1 |
| 20260905183036 | 95 | 184 | 4.0 | 6.0 | 0.00 | 0.10 | 0.10 | 45 | 1011.2 |
| 20260905181536 | 95 | 121 | 2.0 | 6.0 | 0.00 | 0.10 | 0.10 | 42 | 1011.6 |
| 20260905180048 | 95 | 161 | 2.0 | 6.0 | 0.00 | 0.10 | 0.10 | 45 | 1011.6 |
| 20260905174533 | 94 | 171 | 2.0 | 8.0 | 0.00 | 0.10 | 0.10 | 45 | 1011.9 |
| 20260905173031 | 94 | 161 | 2.0 | 9.0 | 0.00 | 0.10 | 0.10 | 46 | 1011.9 |
| 20260905171545 | 93 | 209 | 4.0 | 6.0 | 0.00 | 0.10 | 0.10 | 46 | 1012.0 |
| 20260905170024 | 92 | 170 | 3.0 | 8.0 | 0.00 | 0.10 | 0.10 | 50 | 1012.2 |
| 20260905164521 | 91 | 153 | 3.0 | 8.0 | 0.00 | 0.10 | 0.10 | 49 | 1012.4 |
| 20260905163018 | 90 | 160 | 5.0 | 10.0 | 0.00 | 0.10 | 0.10 | 53 | 1012.9 |
| 20260905161523 | 90 | 151 | 1.0 | 6.0 | 0.00 | 0.10 | 0.10 | 55 | 1013.0 |
| 20260905160011 | 89 | 263 | 2.0 | 6.0 | 0.00 | 0.10 | 0.10 | 56 | 1012.8 |
| 20260905154508 | 88 | 117 | 2.0 | 7.0 | 0.00 | 0.10 | 0.10 | 56 | 1012.9 |
| 20260905153004 | 87 | 80 | 2.0 | 8.0 | 0.00 | 0.10 | 0.10 | 57 | 1013.2 |
| 20260905151601 | 86 | 138 | 3.0 | 5.0 | 0.00 | 0.10 | 0.10 | 57 | 1013.3 |
| 20260905150055 | 85 | 136 | 2.0 | 7.0 | 0.00 | 0.10 | 0.10 | 59 | 1013.1 |
| 20260905144552 | 84 | 133 | 4.0 | 8.0 | 0.00 | 0.10 | 0.10 | 61 | 1013.4 |
| 20260905143048 | 83 | 167 | 4.0 | 7.0 | 0.00 | 0.10 | 0.10 | 63 | 1013.6 |
| 20260905141545 | 83 | 163 | 3.0 | 10.0 | 0.00 | 0.10 | 0.10 | 66 | 1013.6 |
| 20260905140040 | 81 | 131 | 3.0 | 9.0 | 0.02 | 0.10 | 0.10 | 70 | 1013.8 |
| 20260905134537 | 79 | 132 | 0.0 | 3.0 | 0.02 | 0.10 | 0.10 | 79 | 1013.8 |
| 20260905133036 | 78 | 104 | 1.0 | 10.0 | 0.02 | 0.10 | 0.10 | 79 | 1014.2 |
| 20260905131531 | 78 | 19 | 2.0 | 5.0 | 0.02 | 0.10 | 0.10 | 81 | 1014.2 |
| 20260905130028 | 77 | 32 | 3.0 | 8.0 | 0.00 | 0.08 | 0.08 | 85 | 1014.6 |
| 20260905124527 | 77 | 360 | 2.0 | 8.0 | 0.00 | 0.08 | 0.08 | 87 | 1014.0 |
| 20260905123024 | 77 | 202 | 1.0 | 2.0 | 0.00 | 0.08 | 0.08 | 87 | 1013.3 |
| 20260905121521 | 76 | 135 | 0.0 | 0.0 | 0.00 | 0.08 | 0.08 | 87 | 1012.9 |
| 20260905120033 | 76 | 136 | 0.0 | 0.0 | 0.00 | 0.08 | 0.08 | 87 | 1012.8 |
| 20260905114514 | 76 | 136 | 0.0 | 1.0 | 0.00 | 0.08 | 0.08 | 87 | 1012.8 |
| 20260905113014 | 76 | 134 | 0.0 | 3.0 | 0.00 | 0.08 | 0.08 | 87 | 1012.5 |
| 20260905111510 | 76 | 128 | 1.0 | 3.0 | 0.00 | 0.08 | 0.08 | 87 | 1012.6 |
| 20260905110017 | 76 | 128 | 1.0 | 6.0 | 0.00 | 0.08 | 0.08 | 87 | 1012.1 |
| 20260905104509 | 76 | 30 | 2.0 | 6.0 | 0.00 | 0.08 | 0.08 | 86 | 1011.8 |
| 20260905103016 | 76 | 314 | 0.0 | 0.0 | 0.01 | 0.08 | 0.08 | 86 | 1011.3 |
| 20260905101506 | 77 | 314 | 0.0 | 0.0 | 0.01 | 0.08 | 0.08 | 86 | 1011.4 |
| 20260905100004 | 77 | 314 | 0.0 | 0.0 | 0.01 | 0.08 | 0.08 | 85 | 1011.5 |
| 20260905094503 | 77 | 314 | 0.0 | 0.0 | 0.01 | 0.08 | 0.08 | 85 | 1011.5 |